Total_Precipitation_Accumulation
0.25 0.22 0.17 0.14 0.11 0.09 0.08 0.08 0.06 0.05 0.05 0.05 0.03 0.01 0.02 0.01 0.01 0.01 0.01 0.00 0.01 0.02 0.05 0.07 0.08 0.11 0.16 0.22 0.25 0.25 0.23 0.22 0.22 0.21 0.20 0.21 0.20 0.21 0.21 0.22 0.23 0.23 0.24
0.28 0.27 0.21 0.16 0.13 0.11 0.11 0.12 0.12 0.09 0.06 0.04 0.03 0.02 0.02 0.01 0.02 0.01 0.01 0.01 0.01 0.01 0.03 0.06 0.10 0.16 0.23 0.30 0.32 0.32 0.31 0.28 0.25 0.25 0.25 0.24 0.24 0.24 0.24 0.25 0.26 0.27 0.28
0.32 0.30 0.25 0.21 0.17 0.15 0.15 0.15 0.15 0.16 0.14 0.10 0.06 0.05 0.03 0.04 0.03 0.02 0.03 0.02 0.02 0.01 0.02 0.05 0.10 0.15 0.22 0.29 0.35 0.39 0.39 0.35 0.31 0.28 0.27 0.28 0.29 0.29 0.30 0.31 0.33 0.34 0.34
0.37 0.39 0.34 0.28 0.25 0.23 0.20 0.20 0.17 0.16 0.15 0.13 0.11 0.09 0.07 0.07 0.05 0.05 0.04 0.03 0.03 0.03 0.03 0.03 0.06 0.11 0.16 0.24 0.31 0.38 0.43 0.42 0.37 0.34 0.34 0.36 0.37 0.37 0.39 0.40 0.40 0.41 0.41
0.50 0.48 0.42 0.38 0.37 0.37 0.31 0.26 0.21 0.19 0.19 0.17 0.15 0.15 0.13 0.10 0.07 0.06 0.05 0.03 0.03 0.03 0.03 0.03 0.04 0.05 0.09 0.16 0.22 0.33 0.45 0.49 0.46 0.42 0.41 0.42 0.43 0.45 0.49 0.52 0.52 0.53 0.55
0.64 0.59 0.53 0.49 0.46 0.45 0.42 0.37 0.29 0.25 0.23 0.24 0.24 0.19 0.15 0.11 0.08 0.07 0.06 0.05 0.04 0.04 0.04 0.04 0.05 0.05 0.06 0.09 0.14 0.23 0.37 0.49 0.53 0.50 0.47 0.46 0.49 0.53 0.58 0.64 0.65 0.66 0.70
0.84 0.71 0.63 0.62 0.57 0.52 0.47 0.45 0.43 0.38 0.35 0.34 0.34 0.26 0.18 0.14 0.11 0.09 0.08 0.08 0.07 0.07 0.07 0.07 0.07 0.06 0.07 0.09 0.11 0.15 0.25 0.40 0.53 0.57 0.56 0.56 0.57 0.63 0.71 0.79 0.81 0.82 0.86
1.04 0.89 0.76 0.68 0.64 0.61 0.57 0.54 0.57 0.55 0.50 0.50 0.51 0.50 0.36 0.23 0.15 0.14 0.14 0.13 0.11 0.11 0.11 0.10 0.09 0.10 0.10 0.10 0.11 0.13 0.16 0.27 0.45 0.63 0.72 0.74 0.75 0.79 0.86 0.97 1.02 1.09 1.14
1.27 1.10 0.97 0.89 0.84 0.81 0.75 0.73 0.75 0.73 0.68 0.65 0.66 0.73 0.59 0.38 0.23 0.16 0.16 0.16 0.16 0.14 0.13 0.12 0.12 0.12 0.12 0.13 0.14 0.17 0.22 0.27 0.41 0.63 0.85 0.95 0.97 1.02 1.14 1.25 1.31 1.41 1.43
1.35 1.29 1.22 1.11 1.01 0.99 0.94 0.98 1.03 0.99 0.94 0.81 0.73 0.69 0.68 0.57 0.52 0.35 0.21 0.18 0.17 0.16 0.16 0.16 0.16 0.16 0.16 0.17 0.20 0.26 0.33 0.38 0.50 0.69 0.92 1.11 1.24 1.37 1.54 1.63 1.71 1.78 1.73
1.25 1.31 1.31 1.26 1.10 1.00 0.96 1.00 1.04 1.07 1.02 0.96 0.90 0.84 0.82 0.73 0.66 0.61 0.41 0.25 0.23 0.22 0.22 0.22 0.24 0.26 0.28 0.29 0.32 0.38 0.47 0.53 0.66 0.85 1.10 1.34 1.56 1.73 1.92 2.06 2.13 2.16 2.12
1.09 1.12 1.19 1.18 1.16 1.12 1.05 1.06 1.10 1.14 1.15 1.12 1.06 0.98 0.92 0.85 0.74 0.76 0.70 0.50 0.41 0.34 0.34 0.36 0.38 0.40 0.41 0.43 0.45 0.54 0.61 0.69 0.82 0.99 1.26 1.52 1.70 1.83 1.98 2.21 2.37 2.40 2.42
1.05 1.06 1.12 1.14 1.15 1.15 1.17 1.17 1.16 1.10 1.10 1.09 1.06 1.02 0.96 0.88 0.83 0.89 0.93 0.81 0.68 0.55 0.53 0.52 0.51 0.51 0.53 0.55 0.57 0.68 0.70 0.75 0.81 0.95 1.19 1.46 1.57 1.57 1.64 1.82 2.01 2.13 2.23
0.95 0.99 1.03 1.07 1.09 1.12 1.13 1.14 1.11 1.06 1.03 1.02 1.00 0.97 0.93 0.86 0.84 0.88 0.97 1.07 1.04 0.84 0.70 0.66 0.64 0.65 0.66 0.65 0.66 0.73 0.67 0.80 0.84 0.91 1.04 1.16 1.16 1.09 1.09 1.23 1.41 1.56 1.67
0.87 0.86 0.87 0.88 0.92 0.95 0.98 1.02 1.02 0.96 0.92 0.89 0.87 0.86 0.84 0.79 0.77 0.80 0.89 1.05 1.25 1.20 0.94 0.76 0.73 0.73 0.75 0.74 0.76 0.69 0.60 0.74 0.81 0.83 0.88 0.92 0.89 0.86 0.87 0.96 1.12 1.29 1.41
0.75 0.74 0.75 0.72 0.71 0.76 0.83 0.89 0.90 0.89 0.87 0.83 0.80 0.80 0.78 0.77 0.78 0.82 0.88 0.96 1.08 1.21 1.09 0.80 0.68 0.66 0.70 0.73 0.79 0.69 0.62 0.73 0.74 0.74 0.76 0.77 0.79 0.83 0.87 0.91 0.99 1.11 1.27
0.67 0.66 0.67 0.68 0.65 0.64 0.67 0.75 0.80 0.83 0.84 0.81 0.77 0.75 0.75 0.74 0.77 0.79 0.84 0.89 0.94 1.03 1.04 0.84 0.70 0.68 0.70 0.70 0.72 0.70 0.65 0.61 0.58 0.66 0.66 0.66 0.68 0.74 0.83 0.87 0.90 0.96 1.10
0.56 0.54 0.53 0.54 0.56 0.55 0.57 0.62 0.68 0.70 0.73 0.75 0.77 0.79 0.80 0.81 0.84 0.87 0.89 0.89 0.89 0.90 0.93 0.87 0.73 0.65 0.61 0.59 0.59 0.60 0.60 0.58 0.52 0.60 0.62 0.61 0.63 0.67 0.75 0.78 0.79 0.84 0.93
0.58 0.59 0.53 0.48 0.46 0.47 0.50 0.53 0.56 0.61 0.65 0.67 0.72 0.77 0.81 0.87 0.92 0.92 0.91 0.89 0.86 0.83 0.84 0.85 0.75 0.63 0.57 0.54 0.56 0.58 0.59 0.57 0.52 0.55 0.56 0.55 0.57 0.60 0.64 0.71 0.73 0.74 0.76
0.52 0.52 0.53 0.51 0.48 0.46 0.48 0.51 0.57 0.62 0.68 0.72 0.74 0.76 0.79 0.81 0.82 0.82 0.80 0.79 0.80 0.80 0.81 0.83 0.80 0.70 0.61 0.56 0.60 0.66 0.65 0.57 0.53 0.47 0.49 0.48 0.48 0.48 0.50 0.55 0.59 0.61 0.63
0.44 0.48 0.51 0.52 0.51 0.51 0.54 0.58 0.62 0.67 0.73 0.78 0.81 0.80 0.77 0.75 0.70 0.70 0.70 0.70 0.69 0.75 0.82 0.87 0.82 0.73 0.63 0.60 0.60 0.59 0.64 0.61 0.55 0.48 0.44 0.42 0.42 0.39 0.39 0.44 0.50 0.57 0.65
0.41 0.47 0.54 0.60 0.62 0.67 0.79 0.80 0.74 0.72 0.75 0.74 0.72 0.70 0.68 0.68 0.67 0.69 0.70 0.69 0.73 0.83 0.92 0.91 0.80 0.65 0.51 0.47 0.52 0.62 0.72 0.76 0.67 0.47 0.45 0.47 0.45 0.45 0.42 0.45 0.55 0.62 0.71
0.52 0.59 0.62 0.72 0.76 0.80 0.83 0.76 0.72 0.67 0.70 0.69 0.65 0.60 0.57 0.53 0.54 0.52 0.58 0.65 0.67 0.72 0.76 0.75 0.69 0.56 0.50 0.51 0.66 0.82 0.81 0.76 0.60 0.43 0.46 0.52 0.48 0.50 0.50 0.55 0.65 0.66 0.73
0.63 0.70 0.70 0.72 0.75 0.76 0.75 0.68 0.65 0.57 0.53 0.52 0.50 0.46 0.43 0.43 0.44 0.48 0.54 0.62 0.56 0.52 0.52 0.50 0.51 0.55 0.56 0.56 0.65 0.78 0.77 0.73 0.61 0.52 0.51 0.59 0.52 0.51 0.51 0.56 0.66 0.65 0.69
0.66 0.68 0.67 0.63 0.58 0.57 0.57 0.51 0.49 0.45 0.43 0.41 0.40 0.41 0.44 0.40 0.46 0.60 0.63 0.61 0.50 0.41 0.43 0.50 0.55 0.54 0.55 0.53 0.55 0.74 0.90 0.94 0.78 0.56 0.49 0.51 0.47 0.48 0.52 0.56 0.63 0.68 0.68
0.52 0.51 0.47 0.43 0.40 0.38 0.39 0.39 0.38 0.34 0.34 0.35 0.38 0.40 0.44 0.43 0.51 0.63 0.58 0.55 0.47 0.41 0.42 0.40 0.39 0.39 0.38 0.41 0.50 0.62 0.97 1.25 0.98 0.68 0.45 0.55 0.57 0.63 0.80 0.59 0.58 0.61 0.63